Location: Kellogg
(38.0159°N, 90.0546°W)
Time: 20:36:19
(UTC+00:00)

Transit 2A Rocket - Pass Details

Date: 13 September 2024
Orbit: 583 x 908 km, 66.7° (Epoch: 13 October)

Event Time Altitude Azimuth Distance (km) Brightness Sun altitude
Exits shadow 07:44:38 12° 344° (NNW) 2,431 7.9 -41.4°
Drops below altitude 10° 07:45:37 10° 352° (N) 2,598 8.1 -41.3°
Sets 07:49:24 0° 15° (NNE) 3,538 9.2 -40.8°
